Weather History for PABR - August, 2012

Change the Weather History Date:

Saturday, August 25, 2012

  Actual Average Record
Temperature  
Mean Temperature 48 °F 38 °F  
Max Temperature 53 °F 42 °F 61 °F (1979)
Min Temperature 43 °F 34 °F 23 °F (1955)
Degree Days  
Heating Degree Days 17 27  
Month to date heating degree days 447 641  
Since 1 June heating degree days 1917 2268  
Since 1 July heating degree days 1092 1388  
Cooling Degree Days 0    
Month to date cooling degree days 0  
Year to date cooling degree days 0  
Since 1 June cooling degree days 0  
Moisture  
Dew Point 44 °F    
Average Humidity 0    
Maximum Humidity 0    
Minimum Humidity 0    
Precipitation  
Precipitation 0.07 in 0.04 in 0.45 in (1946)
Month to date precipitation 0.93 0.86  
Year to date precipitation 2.65 2.86  
Snow  
Snow 0.00 in 0.10 in 2.10 in (1984)
Month to date snowfall T 0.6  
Since 1 June snowfall 0.0 1.5  
Since 1 July snowfall 0.2 0.8  
Snow Depth 0.00 in    
Sea Level Pressure  
Sea Level Pressure 29.45 in    
Wind  
Wind Speed 13 mph (SSW)    
Max Wind Speed 26 mph    
Max Gust Speed 32 mph    
Visibility 9 miles    
Events Fog , Rain    
T = Trace of Precipitation, MM = Missing Value Source: NWS Daily Summary

Daily Weather History Graph

Daily Weather History Graph

Search for Another Location

Airport or City:

Trip Planner

Search our weather history database for the weather conditions in past years. The results will help you decide how hot, cold, wet, or windy it might be!

Date:

Astronomy

Aug. 25, 2012 Rise Set
Actual Time 6:03 AM AKDT 10:50 PM AKDT
Civil Twilight 4:23 AM AKDT 12:27 AM AKDT
Nautical Twilight Sun does not set Sun does not set
Astronomical Twilight Sun does not set Sun does not set
Moon No Moon Rise No Moon Set
Length of Visible Light 20h 04m
Length of Day
16h 46m
Waxing Gibbous, 64% of the Moon is Illuminated
Aug 25
Waxing Gibbous
Aug 31
Full
Sep 8
Last Quarter
Sep 15
New
Sep 22
First Quarter

Hourly Weather History & Observations

Time (AKDT) Temp. Windchill Dew Point Humidity Pressure Visibility Wind Dir Wind Speed Gust Speed Precip Events Conditions
12:53 AM 44.1 °F 40.1 °F 43.0 °F 96% 29.38 in 7.0 mi East 6.9 mph - N/A Fog Patches of Fog
1:53 AM 45.0 °F 40.1 °F 43.0 °F 93% 29.37 in 10.0 mi East 9.2 mph - N/A   Partly Cloudy
2:53 AM 45.0 °F 40.6 °F 43.0 °F 93% 29.37 in 10.0 mi ESE 8.1 mph - N/A   Mostly Cloudy
3:53 AM 46.0 °F 42.5 °F 44.1 °F 93% 29.38 in 10.0 mi ESE 6.9 mph - N/A   Mostly Cloudy
4:53 AM 48.0 °F - 46.0 °F 93% 29.38 in 10.0 mi ESE 5.8 mph - N/A   Mostly Cloudy
5:53 AM 48.0 °F - 46.9 °F 96% 29.39 in 10.0 mi SE 4.6 mph - 0.01 in Rain Light Rain
6:53 AM 48.0 °F - 46.0 °F 93% 29.39 in 10.0 mi ESE 6.9 mph - 0.00 in   Mostly Cloudy
7:53 AM 50.0 °F - 46.0 °F 86% 29.39 in 10.0 mi SSE 11.5 mph - N/A   Mostly Cloudy
8:53 AM 48.9 °F - 44.1 °F 83% 29.39 in 10.0 mi South 11.5 mph - N/A   Mostly Cloudy
9:53 AM 51.1 °F - 44.1 °F 77% 29.40 in 10.0 mi South 13.8 mph - N/A   Mostly Cloudy
10:53 AM 52.0 °F - 43.0 °F 71% 29.42 in 10.0 mi South 15.0 mph - N/A   Scattered Clouds
11:53 AM 50.0 °F - 42.1 °F 74% 29.43 in 10.0 mi South 12.7 mph - N/A   Scattered Clouds
12:53 PM 48.9 °F - 43.0 °F 80% 29.43 in 10.0 mi SSW 16.1 mph - N/A   Scattered Clouds
12:56 PM 48.2 °F - 42.8 °F 82% 29.43 in 10.0 mi SSW 15.0 mph - N/A   Mostly Cloudy
1:46 PM 51.8 °F - 42.8 °F 71% 29.44 in 10.0 mi SW 11.5 mph - N/A   Overcast
1:53 PM 51.1 °F - 43.0 °F 74% 29.44 in 10.0 mi SW 12.7 mph 20.7 mph N/A   Overcast
2:53 PM 48.9 °F - 42.1 °F 77% 29.46 in 10.0 mi SW 16.1 mph - 0.00 in Rain Light Rain
3:45 PM 50.0 °F - 42.8 °F 76% 29.47 in 10.0 mi SW 12.7 mph - 0.00 in   Overcast
3:53 PM 48.9 °F - 42.1 °F 77% 29.47 in 10.0 mi WSW 13.8 mph - 0.00 in   Overcast
4:53 PM 48.0 °F - 43.0 °F 83% 29.48 in 10.0 mi SSW 12.7 mph - N/A   Overcast
5:53 PM 50.0 °F - 44.1 °F 80% 29.49 in 10.0 mi SW 12.7 mph - 0.00 in   Overcast
6:53 PM 51.1 °F - 45.0 °F 80% 29.49 in 10.0 mi SW 12.7 mph - 0.00 in   Overcast
7:53 PM 48.9 °F - 45.0 °F 86% 29.51 in 10.0 mi SW 11.5 mph - 0.00 in Rain Light Rain
7:58 PM 48.2 °F - 46.4 °F 93% 29.50 in 3.0 mi SW 11.5 mph - N/A Rain Light Rain
8:17 PM 48.2 °F - 46.4 °F 93% 29.50 in 7.0 mi SSW 16.1 mph - N/A   Overcast
8:53 PM 48.0 °F - 46.0 °F 93% 29.50 in 10.0 mi SSW 12.7 mph - 0.00 in Rain Light Rain
9:53 PM 46.9 °F - 46.0 °F 97% 29.52 in 10.0 mi WSW 16.1 mph - 0.00 in   Overcast
9:55 PM 46.4 °F 39.2 °F 44.6 °F 93% 29.51 in 9.0 mi WSW 18.4 mph - N/A   Overcast
10:06 PM 46.4 °F 39.8 °F 44.6 °F 93% 29.52 in 10.0 mi WSW 16.1 mph - N/A   Overcast
10:53 PM 46.9 °F - 45.0 °F 93% 29.53 in 8.0 mi WSW 19.6 mph 25.3 mph N/A   Overcast
11:53 PM 46.0 °F 38.3 °F 44.1 °F 93% 29.54 in 3.0 mi WSW 20.7 mph 28.8 mph 0.00 in   Light Drizzle